DL1NER Weather Reports


time (UTC)temp
C
wind
direction
speed
KPH
gust
KPH
rain 1hr
cm
rain 24hr
cm
rain mn
cm
humidity
%
barometer
mb
20260506205011 12 194 1.6 8.0 0.00 0.18 0.18 89 1007.8
20260506204011 12 217 1.6 6.4 0.00 0.18 0.18 88 1007.7
20260506203011 12 224 1.6 6.4 0.00 0.18 0.18 87 1007.6
20260506202011 12 238 1.6 8.0 0.00 0.18 0.18 87 1007.6
20260506201011 12 238 1.6 4.8 0.03 0.18 0.18 86 1007.6
20260506200011 12 211 1.6 6.4 0.03 0.18 0.18 84 1007.3
20260506195012 12 211 3.2 8.0 0.05 0.18 0.18 83 1007.3
20260506194011 12 188 1.6 6.4 0.05 0.18 0.18 82 1007.2
20260506193011 12 217 3.2 8.0 0.13 0.18 0.18 82 1007.2
20260506192011 12 234 3.2 8.0 0.15 0.18 0.18 80 1007.0
20260506191011 13 228 1.6 6.4 0.15 0.15 0.15 79 1006.8
20260506190011 13 246 1.6 11.3 0.15 0.15 0.15 78 1006.7
20260506185011 13 209 1.6 4.8 0.15 0.15 0.15 76 1006.5
20260506184011 13 209 3.2 9.7 0.13 0.13 0.13 74 1006.5
20260506183011 13 235 6.4 12.9 0.05 0.05 0.05 71 1006.3
20260506182011 13 219 6.4 17.7 0.03 0.03 0.03 69 1006.3
20260506181011 13 234 4.8 16.1 0.00 0.00 0.00 70 1006.1
20260506180011 13 216 3.2 12.9 0.00 0.00 0.00 72 1005.9
20260506175011 13 237 3.2 8.0 0.00 0.00 0.00 71 1005.8
20260506174010 13 243 3.2 11.3 0.00 0.00 0.00 70 1005.6
20260506173011 14 269 4.8 6.4 0.00 0.00 0.00 69 1005.4
20260506172011 14 169 1.6 6.4 0.00 0.00 0.00 67 1005.2
20260506171010 14 103 1.6 6.4 0.00 0.00 0.00 63 1005.3
20260506170011 15 123 4.8 12.9 0.00 0.00 0.00 63 1005.2
20260506165010 15 117 4.8 9.7 0.00 0.00 0.00 65 1005.2
20260506164012 15 115 1.6 6.4 0.00 0.00 0.00 65 1005.2
20260506163011 15 115 4.8 16.1 0.00 0.00 0.00 65 1005.4
20260506162010 16 117 4.8 11.3 0.00 0.00 0.00 63 1005.3
20260506161011 16 92 3.2 6.4 0.00 0.00 0.00 63 1005.2
20260506160010 16 92 1.6 6.4 0.00 0.00 0.00 61 1005.1
20260506155010 17 92 4.8 11.3 0.00 0.00 0.00 58 1005.0
20260506154010 17 105 4.8 12.9 0.00 0.00 0.00 56 1005.1
20260506153010 18 82 3.2 14.5 0.00 0.00 0.00 56 1005.2
20260506152011 18 302 3.2 12.9 0.00 0.00 0.00 56 1005.1
20260506151010 18 279 4.8 12.9 0.00 0.00 0.00 55 1004.9
20260506150011 18 261 6.4 16.1 0.00 0.00 0.00 55 1004.9
20260506145010 18 238 8.0 14.5 0.00 0.00 0.00 54 1004.9
20260506144011 18 258 8.0 14.5 0.00 0.00 0.00 53 1004.8
20260506143009 19 267 6.4 14.5 0.00 0.00 0.00 53 1004.8
20260506142011 19 256 4.8 14.5 0.00 0.00 0.00 52 1004.8
20260506141010 19 256 4.8 14.5 0.00 0.00 0.00 52 1004.8
20260506140009 19 150 1.6 4.8 0.00 0.00 0.00 54 1004.8
20260506135009 19 238 4.8 11.3 0.00 0.00 0.00 53 1004.7
20260506134010 19 238 4.8 11.3 0.00 0.00 0.00 53 1004.7
20260506133011 19 240 3.2 11.3 0.00 0.00 0.00 54 1004.8
20260506132010 19 245 3.2 11.3 0.00 0.00 0.00 52 1004.9
20260506131009 20 261 3.2 8.0 0.00 0.00 0.00 53 1005.0
20260506130009 19 251 3.2 9.7 0.00 0.00 0.00 52 1005.3
20260506125010 19 251 3.2 9.7 0.00 0.00 0.00 52 1005.3
20260506124009 19 206 3.2 12.9 0.00 0.00 0.00 52 1005.6
20260506122009 19 194 3.2 12.9 0.00 0.00 0.00 54 1005.6
20260506121014 19 194 3.2 12.9 0.00 0.00 0.00 54 1005.6
20260506120014 19 196 3.2 11.3 0.00 0.00 0.00 53 1005.6
20260506115014 19 223 4.8 14.5 0.00 0.00 0.00 53 1005.7
20260506114014 19 155 3.2 9.7 0.00 0.00 0.00 53 1005.7
20260506113014 19 227 4.8 17.7 0.00 0.00 0.00 58 1005.8
20260506112013 19 136 6.4 12.9 0.00 0.00 0.00 61 1005.8
20260506111014 18 178 4.8 11.3 0.00 0.00 0.00 60 1005.9
20260506110014 18 111 3.2 11.3 0.00 0.00 0.00 63 1005.9
20260506105013 18 147 3.2 9.7 0.00 0.00 0.00 64 1006.0
20260506104013 18 101 4.8 14.5 0.00 0.00 0.00 60 1006.1
20260506103013 18 264 3.2 9.7 0.00 0.00 0.00 66 1006.1
20260506102013 18 206 1.6 8.0 0.00 0.00 0.00 63 1006.1
20260506101013 18 184 3.2 11.3 0.00 0.00 0.00 63 1006.2
20260506100013 18 188 1.6 6.4 0.00 0.00 0.00 67 1006.2
20260506095013 18 140 4.8 11.3 0.00 0.00 0.00 68 1006.2
20260506094013 17 249 6.4 11.3 0.00 0.00 0.00 67 1006.2
20260506093013 16 194 4.8 12.9 0.00 0.00 0.00 68 1006.2
20260506092013 16 227 4.8 11.3 0.00 0.00 0.00 73 1006.2
20260506091013 16 249 4.8 12.9 0.00 0.00 0.00 70 1006.3
20260506090013 16 228 4.8 16.1 0.00 0.00 0.00 69 1006.3
20260506085013 17 221 4.8 11.3 0.00 0.00 0.00 72 1006.4
20260506084013 17 185 4.8 11.3 0.00 0.00 0.00 72 1006.4
20260506083013 17 231 3.2 12.9 0.00 0.00 0.00 69 1006.3
20260506082014 17 127 4.8 16.1 0.00 0.00 0.00 69 1006.4
20260506081013 16 163 3.2 12.9 0.00 0.00 0.00 75 1006.4
20260506073013 14 186 3.2 11.3 0.00 0.00 0.00 81 1006.3
20260506072013 14 190 1.6 8.0 0.00 0.00 0.00 81 1006.2
20260506071012 14 183 3.2 9.7 0.00 0.00 0.00 81 1006.2
20260506062012 11 120 1.6 9.7 0.00 0.00 0.00 91 1006.3
20260506061012 11 111 0.0 6.4 0.00 0.00 0.00 92 1006.2
20260506051012 10 155 4.8 9.7 0.00 0.00 0.00 92 1006.7
20260506045012 9 164 4.8 8.0 0.00 0.00 0.00 92 1006.9
20260506044012 9 165 3.2 6.4 0.00 0.00 0.00 92 1006.8
20260506043012 9 165 3.2 6.4 0.00 0.00 0.00 91 1006.7
20260506042012 9 165 1.6 6.4 0.00 0.00 0.00 91 1006.6
20260506041012 9 165 4.8 8.0 0.00 0.00 0.00 91 1006.6
20260506040012 9 167 1.6 6.4 0.00 0.00 0.00 91 1006.6
20260506035012 9 168 3.2 8.0 0.00 0.00 0.00 91 1006.5
20260506034012 9 171 0.0 6.4 0.00 0.00 0.00 91 1006.5
20260506033012 9 174 0.0 3.2 0.00 0.00 0.00 91 1006.3
20260506032011 9 174 0.0 0.0 0.00 0.00 0.00 91 1006.4
20260506031012 10 174 0.0 0.0 0.00 0.00 0.00 90 1006.4
20260506030011 10 174 0.0 1.6 0.00 0.00 0.00 90 1006.5
20260506025012 10 174 0.0 3.2 0.00 0.00 0.00 90 1006.5
20260506024011 10 174 0.0 8.0 0.00 0.00 0.00 90 1006.6
20260506023011 10 174 0.0 4.8 0.00 0.00 0.00 90 1006.6
20260506022011 10 174 0.0 4.8 0.00 0.00 0.00 90 1006.7
20260506021011 11 174 1.6 4.8 0.00 0.00 0.00 90 1006.6
20260506020011 11 204 0.0 0.0 0.00 0.00 0.00 90 1006.6
20260506015011 11 204 0.0 1.6 0.00 0.00 0.00 91 1006.4
20260506014011 11 204 1.6 3.2 0.00 0.00 0.00 91 1006.4
20260506013011 11 204 0.0 4.8 0.00 0.00 0.00 91 1006.5
20260506012011 11 204 1.6 8.0 0.00 0.00 0.00 91 1006.7
20260506011011 11 203 1.6 6.4 0.00 0.00 0.00 91 1006.7
20260506010011 11 201 0.0 6.4 0.00 0.00 0.00 90 1006.7
20260506005011 11 202 1.6 6.4 0.00 0.00 0.00 90 1006.8
20260506004011 11 211 1.6 6.4 0.00 0.00 0.00 90 1006.7
20260506003011 11 207 0.0 3.2 0.00 0.00 0.00 90 1006.7
20260506002011 11 207 1.6 6.4 0.00 0.00 0.00 90 1006.8
20260506001011 11 207 3.2 8.0 0.00 0.00 0.00 90 1006.9
20260506000011 11 196 4.8 9.7 0.00 0.00 0.00 90 1007.0
20260505235011 11 200 1.6 6.4 0.00 0.00 0.00 90 1007.1
20260505234011 11 195 3.2 9.7 0.00 0.00 0.00 90 1007.2
20260505233011 11 174 3.2 11.3 0.00 0.00 0.00 90 1007.2
20260505232010 11 210 3.2 6.4 0.00 0.00 0.00 90 1007.2
20260505231011 11 211 3.2 8.0 0.00 0.00 0.00 90 1007.3
20260505230010 11 205 3.2 8.0 0.00 0.00 0.00 91 1007.3
20260505225011 11 192 3.2 8.0 0.00 0.00 0.00 90 1007.3
20260505224010 11 191 3.2 8.0 0.00 0.00 0.00 90 1007.3
20260505223010 11 205 1.6 6.4 0.00 0.00 0.00 90 1007.3
20260505222011 11 206 3.2 8.0 0.00 0.00 0.00 91 1007.4
20260505221011 11 207 1.6 6.4 0.00 0.00 0.00 91 1007.3
20260505220010 11 201 3.2 9.7 0.00 0.00 0.00 91 1007.3
20260505215010 11 207 0.0 3.2 0.00 0.20 0.20 90 1007.3
20260505214011 11 207 1.6 3.2 0.00 0.20 0.20 90 1007.3
20260505213011 11 207 1.6 6.4 0.00 0.20 0.20 90 1007.3
20260505212009 11 238 0.0 4.8 0.00 0.20 0.20 89 1007.4
20260505211010 11 238 0.0 4.8 0.00 0.20 0.20 89 1007.4
20260505210011 11 238 0.0 4.8 0.00 0.20 0.20 89 1007.3